Location: Ba??rsak �ay?
(36.5000°N, 30.5333°E)
Time: 12:17:40
(UTC+00:00)

Daily predictions for brighter satellites

Satellite Brightness Start Highest point End
(mag) Time Altitude Azimuth Time Altitude Azimuth Time Altitude Azimuth
Cosmos 1933 3.3 17:17:43 10° N 17:21:50 81° E 17:25:55 10° S
Cosmos 405 3.0 17:18:58 10° N 17:22:25 61° E 17:25:49 10° SSE
Meteor 2-12 Rocket 4.5 17:16:38 10° S 17:22:44 69° E 17:28:51 10° NNE
Cosmos 1782 3.6 17:20:32 10° NNE 17:24:11 32° E 17:27:48 10° SE
DMSP B5D2-2 4.4 17:22:49 10° NNE 17:27:49 45° E 17:32:48 10° S
ATLAS 5 CENTAUR R/B 3.6 17:23:28 10° N 17:28:20 26° NE 17:33:47 10° ESE
SL-4 R/B 2.4 17:27:13 10° SSW 17:31:08 39° SE 17:34:46 10° ENE
Cosmos 1833 Rocket 3.6 17:27:04 10° SSE 17:31:38 26° ESE 17:36:13 10° NE
SL-08 RB Rocket 3.8 17:28:21 10° SSE 17:32:53 62° ENE 17:37:27 10° N
Cosmos 1606 4.2 17:32:41 10° NNW 17:36:18 40° W 17:39:52 10° SSW
SPOT 3 Rocket 4.5 17:33:59 10° SE 17:38:30 31° ENE 17:43:02 10° N
Cosmos 2251 Rocket 3.5 17:34:32 10° SSW 17:39:46 89° ESE 17:45:05 10° NNE
Cosmos 1727 Rocket 4.4 17:34:36 10° N 17:40:39 44° ENE 17:46:39 10° SSE
Cosmos 2228 Rocket 3.8 17:38:35 10° NNE 17:42:39 35° ENE 17:46:37 10° SE
Cosmos 1515 Rocket 3.5 17:41:15 10° N 17:45:44 81° E 17:50:11 10° S
Cosmos 389 Rocket 4.0 17:46:38 10° NNE 17:49:09 19° ENE 17:50:29 15° ESE
Cosmos 1812 4.3 17:47:04 10° NNE 17:49:53 19° ENE 17:51:28 15° ESE
Cosmos 972 Rocket 4.3 17:47:47 10° N 17:52:29 43° ENE 17:56:19 15° SE
Cosmos 1151 Rocket 4.3 17:48:41 10° NNW 17:52:41 41° W 17:56:42 10° SSW
Resurs 01 Rocket 2.8 17:49:57 15° ESE 17:52:41 26° ENE 17:56:21 10° NNE
Cosmos 1633 3.8 17:50:42 10° SSW 17:54:05 42° W 17:57:28 10° N
Cosmos 614 Rocket 4.1 17:53:58 10° S 17:58:56 53° ESE 18:03:58 10° NNE
Cosmos 1441 Rocket 3.6 17:56:45 10° SSE 18:00:19 39° E 18:03:53 10° NNE
Intercosmos 25 4.4 17:57:46 10° NNE 18:00:52 22° ENE 18:01:53 19° E
FALCON 9 DEB 3.3 17:58:21 10° SSW 18:01:43 47° SE 18:05:05 10° ENE
USA 267 3.3 17:57:11 10° NE 18:03:45 87° NW 18:10:18 10° SW
Cosmos 1821 Rocket 4.2 17:58:33 10° SSE 18:04:23 49° E 18:10:17 10° NNE
IRIDIUM 103 4.4 18:01:26 10° SSE 18:06:31 58° E 18:11:38 10° N
COSMOS 2406 3.2 18:03:14 10° SSW 18:08:59 87° ESE 18:14:45 10° NNE
MONITOR-E 4.1 18:13:53 25° S 18:15:01 54° W 18:17:22 10° NNW
CZ-2C R/B 3.8 18:16:24 10° N 18:21:01 80° WNW 18:25:30 10° SSW
Cosmos 2082 Rocket 2.5 18:19:01 10° S 18:24:23 44° ESE 18:29:45 10° NE
Sich 1 3.0 18:20:46 14° S 18:24:30 67° E 18:28:55 10° NNE
IRIDIUM 106 4.3 18:19:35 10° S 18:24:48 88° E 18:30:02 10° N
Cosmos 1862 3.6 18:20:56 10° SSW 18:24:57 69° W 18:29:00 10° N
Shenzhou-11 Module 3.8 18:23:19 10° NW 18:25:02 17° N 18:25:46 15° NNE
SJ-6B 4.4 18:23:27 10° SSW 18:27:13 35° W 18:30:56 10° NNW
Meteor 2-6 Rocket 4.2 18:22:27 10° N 18:27:59 85° W 18:32:41 15° S
Cosmos 1818 4.3 18:24:29 10° NNW 18:29:35 39° NE 18:31:46 27° E
Spot 2 Rocket 4.3 18:31:13 28° ESE 18:32:43 34° ENE 18:37:17 10° N
Cosmos 2239 Rocket 4.4 18:27:36 10° S 18:33:42 75° E 18:39:49 10° N
Cosmos 1000 Rocket 4.5 18:28:37 10° N 18:34:50 67° E 18:38:27 26° SSE
USA 234 4.5 18:31:25 14° E 18:35:56 31° NNE 18:41:28 10° NNW
Cosmos 1190 Rocket 3.9 18:33:35 10° S 18:38:48 74° ESE 18:44:05 10° NNE
Resurs 1-3 4.1 18:36:07 19° S 18:39:08 58° W 18:43:28 10° NNW
Cosmos 407 Rocket 3.5 18:36:28 10° SSW 18:41:48 83° WNW 18:47:08 10° NNE
Terra 3.9 18:42:15 13° ENE 18:42:17 13° ENE 18:44:25 10° NE
CZ-2C R/B 4.5 18:40:54 10° N 18:45:22 30° WNW 18:49:50 10° SW
Cosmos 1666 Rocket 3.4 18:44:21 38° S 18:45:57 76° E 18:50:15 10° N
MetOp-B 4.1 18:44:23 37° SE 18:46:25 64° ENE 18:51:43 10° N
USA 238 DEB 3.7 18:40:57 10° S 18:47:13 49° ESE 18:53:40 10° NE
USA 238 3.7 18:41:05 10° S 18:47:19 49° ESE 18:53:46 10° NE
Meteor 1-4 Rocket 3.8 18:46:01 10° NNE 18:48:15 28° NE 18:48:15 28° NE
SL-8 R/B 3.8 18:44:43 10° NW 18:49:32 65° NNE 18:50:51 45° E
Meteor 1-27 Rocket 3.8 18:46:00 10° N 18:51:57 76° E 18:54:26 37° SSE
SPOT 5 4.2 18:56:40 21° ENE 18:56:40 21° ENE 18:59:27 10° NNE
SPOT 1/Viking Rocket 3.8 18:59:15 46° ESE 19:00:04 51° ENE 19:05:07 10° N
Cosmos 1980 Rocket 2.8 18:59:15 10° N 19:04:33 39° ENE 19:05:19 37° E
Cosmos 1140 Rocket 3.9 19:02:32 10° SSW 19:07:42 62° WNW 19:12:54 10° N
SL-4 R/B 3.9 19:07:20 10° W 19:10:46 27° NNW 19:14:01 10° NNE
USA 32 3.9 19:12:32 65° SE 19:13:09 73° E 19:18:23 10° N
ATLAS 5 CENTAUR R/B 2.8 19:07:21 10° NW 19:13:20 59° WSW 19:15:45 38° S
Cosmos 1833 Rocket 4.1 19:10:09 10° SW 19:15:19 37° WNW 19:20:31 10° N
CENTAUR R/B 3.1 19:17:41 36° ENE 19:17:41 36° ENE 19:22:11 10° NE
Cosmos 1633 Rocket 3.7 19:18:04 39° SW 19:19:18 52° W 19:23:38 10° N
Cosmos 1697 Rocket 2.6 19:14:45 10° NNW 19:20:22 79° WSW 19:21:19 62° S
Cosmos 1867 3.9 19:17:30 10° SW 19:22:52 63° WNW 19:28:17 10° NNE
Resurs 01 Rocket 3.5 19:27:32 20° SW 19:29:05 24° W 19:32:43 10° NW
Landsat 7 4.1 19:30:06 60° WSW 19:30:22 61° W 19:35:05 10° NNW
Meteor 1-25 Rocket 4.2 19:35:37 66° SW 19:36:22 79° W 19:41:58 10° N
Cosmos 1470 Rocket 4.3 19:42:24 52° WNW 19:42:24 52° WNW 19:46:17 10° N
NOSS 3-2 (A) 3.6 19:36:58 12° SW 19:42:01 64° NW 19:48:14 10° NNE
Cosmos 2360 4.4 19:41:41 10° NNW 19:47:21 62° WSW 19:47:32 62° WSW
NOSS 3-2 (C) 3.3 19:48:31 70° NE 19:48:31 70° NE 19:54:02 10° NNE
ERS-1 Rocket 3.4 19:56:08 60° NW 19:56:08 60° NW 20:00:28 10° NNW
BREEZE-M TANK 4.5 19:46:44 10° SW 19:55:19 40° SW 19:55:19 40° SW
SL-16 R/B 3.4 19:58:10 10° N 20:02:26 33° NE 20:02:26 33° NE
Lacrosse 5 3.7 20:02:27 10° NNW 20:06:22 22° NNE 20:06:22 22° NNE
Cosmos 2082 Rocket 4.3 20:04:05 10° WSW 20:08:37 24° WNW 20:13:11 10° N
USA 234 3.2 20:18:46 80° W 20:18:46 80° W 20:25:01 10° NW
Terra 3.1 20:21:08 38° NW 20:21:08 38° NW 20:24:11 10° NNW
Cosmos 2100 Rocket 4.2 20:20:53 64° N 20:20:53 64° N 20:26:01 10° N
Cosmos 2322 Rocket 3.3 20:20:23 10° N 20:24:25 37° NNE 20:24:25 37° NNE
ATLAS 3B R/B 3.8 20:34:00 32° NE 20:34:00 32° NE 20:37:24 10° NE
Cosmos 2173 Rocket 4.4 20:36:35 60° NNW 20:36:35 60° NNW 20:41:41 10° N
Cosmos 2360 Rocket 3.8 20:35:01 10° N 20:38:35 27° NE 20:38:35 27° NE
Cosmos 1980 Rocket 4.0 20:43:44 10° NW 20:47:05 24° W 20:47:05 24° W
Cosmos 2333 Rocket 4.3 20:56:06 10° NNE 20:59:21 18° NE 20:59:21 18° NE
CENTAUR R/B 4.0 21:04:45 25° W 21:06:51 31° NW 21:12:53 10° NNE
ATLAS 5 CENTAUR R/B 4.3 21:21:57 10° NNW 21:23:25 28° NNW 21:23:25 28° NNW
SL-16 R/B 4.3 21:42:25 10° NW 21:44:17 19° WNW 21:44:17 19° WNW
Lacrosse 5 4.5 21:44:45 10° NW 21:45:31 14° NW 21:45:31 14° NW
Cosmos 2219 Rocket 3.8 21:53:30 10° N 21:56:38 30° N 21:56:38 30° N
ATLAS 3B R/B 4.2 22:21:12 26° NW 22:21:58 26° NW 22:27:26 10° N
Cosmos 2360 Rocket 4.4 22:18:52 10° NW 22:20:19 17° NW 22:20:19 17° NW
COSMOS 2428 4.3 22:19:39 10° NNW 22:22:37 31° N 22:22:37 31° N
Cosmos 2297 Rocket 4.0 22:34:19 25° NE 22:34:19 25° NE 22:36:48 10° NE
Cosmos 2333 Rocket 4.0 22:39:02 10° NNW 22:41:19 25° NW 22:41:19 25° NW
Cosmos 2237 Rocket 3.7 22:43:50 10° N 22:47:32 33° NNE 22:47:32 33° NNE
Resurs 1-4 Rocket 3.6 23:05:19 10° NNE 23:08:21 31° NE 23:08:21 31° NE
Cosmos 2227 Rocket 3.2 23:22:42 43° NNE 23:22:42 43° NNE 23:26:28 10° NNE
USA 229 DEB 4.4 23:34:40 40° E 23:34:40 40° E 23:40:07 10° NE
USA 229 4.4 23:34:45 39° E 23:34:45 39° E 23:40:10 10° NE
Cosmos 2082 4.3 23:44:06 53° NNE 23:44:06 53° NNE 23:48:20 10° NNE
SL-16 R/B 2.7 23:46:15 71° N 23:46:15 71° N 23:51:48 10° NNW
ADEOS II 3.0 23:49:07 10° NNE 23:53:32 43° E 23:53:32 43° E
